Hourly Data Report for October 17, 2015

All times are specified in Local Standard Time (LST). Add 1 hour to adjust for Daylight Saving Time where and when it is observed.

KUGAARUK CLIMATE
NUNAVUT

68°32'15.060" N
89°47'47.020" W
15.80 m
2303094
71407
NBB

Download Data

Hourly Data (October 2015)
Hourly Data Report for October 17, 2015
Temp Definition
°C
Dew Point Temp Definition
°C
Rel Hum Definition
%
Wind Dir Definition
10's deg

Wind Spd Definition
km/h
Visibility Definition
km
Stn Press Definition
kPa
Hmdx Definition


Wind Chill Definition


Weather Definition


TIME
00:00 -5.1 -8.2 79 30 19   101.15   -12 LegendNANA
01:00 -5.4 -8.1 81 30 19   101.14   -12 LegendNANA
02:00 -5.4 -7.9 82 30 15   101.16   -11 LegendNANA
03:00 -5.2 -8.3 79 31 21   101.17   -12 LegendNANA
04:00 -5.6 -9.0 77 33 21   101.18   -12 LegendNANA
05:00 -5.6 -9.3 75 32 21   101.19   -12 LegendNANA
06:00 -5.7 -9.5 74 31 22   101.17   -13 LegendNANA
07:00 -5.8 -9.6 74 32 21   101.18   -13 LegendNANA
08:00 -5.6 -9.6 73 31 17   101.19   -12 LegendNANA
09:00 -5.4 -9.8 72 31 14   101.19   -11 LegendNANA
10:00 -5.2 -9.4 72 31 18   101.18   -11 LegendNANA
11:00 -4.7 -9.8 68 30 17   101.18   -11 LegendNANA
12:00 -4.9 -8.1 78 30 18   101.16   -11 LegendNANA
13:00 -5.0 -7.6 82 27 19   101.16   -11 LegendNANA
14:00 -4.9 -6.9 86 28 23   101.14   -12 LegendNANA
15:00 -4.7 -6.4 88 26 15   101.13   -10 LegendNANA
16:00 -4.6 -6.4 87 26 15   101.10   -10 LegendNANA
17:00 -4.7 -6.7 86 26 16   101.06   -10 LegendNANA
18:00 -5.0 -6.6 88 27 15   101.02   -11 LegendNANA
19:00 -5.1 -6.8 88 24 12   100.96   -10 LegendNANA
20:00 -5.3 -6.7 90 21 16   100.90   -11 LegendNANA
21:00 -5.2 -6.6 89 24 17   100.89   -11 LegendNANA
22:00 -5.1 -7.0 86 26 16   100.87   -11 LegendNANA
23:00 -6.3 -8.4 85 33 16   100.87   -12 LegendNANA

Notes on Data Quality.

Legend

  • E = Estimated
  • M = Missing
  • NA = Not Available
  • ‡ = Partner data that is not subject to review by the National Climate Archives
Date modified: